This is the latest recevied weather packets stored in our database for station/object OK1FET-5. If no packets are shown the sender has not sent any weather packets the latest 10 day(s).
| Time | Temp. | Humidity | Pressure | Rain* | Wind** | Luminosity | Snow |
|---|---|---|---|---|---|---|---|
| 1788294159 | 17.22° C | 61% | 1022.1 hPa | - | - | - | - |
| 1788293582 | 17.78° C | 60% | 1022.1 hPa | - | - | - | - |
| 1788292967 | 17.78° C | 59% | 1022 hPa | - | - | - | - |
| 1788292372 | 17.78° C | 57% | 1021.9 hPa | - | - | - | - |
| 1788291776 | 17.78° C | 56% | 1021.8 hPa | - | - | - | - |
| 1788291180 | 17.78° C | 54% | 1021.8 hPa | - | - | - | - |
| 1788290584 | 17.78° C | 53% | 1021.8 hPa | - | - | - | - |
| 1788289989 | 17.78° C | 52% | 1021.7 hPa | - | - | - | - |
| 1788289393 | 18.33° C | 52% | 1021.7 hPa | - | - | - | - |
| 1788288797 | 18.33° C | 52% | 1021.7 hPa | - | - | - | - |
| 1788288201 | 18.33° C | 52% | 1021.6 hPa | - | - | - | - |
| 1788287606 | 18.33° C | 51% | 1021.6 hPa | - | - | - | - |
| 1788287010 | 18.89° C | 51% | 1021.4 hPa | - | - | - | - |
| 1788286414 | 18.89° C | 51% | 1021.4 hPa | - | - | - | - |
| 1788285818 | 18.89° C | 50% | 1021.2 hPa | - | - | - | - |
| 1788285223 | 19.44° C | 49% | 1021.2 hPa | - | - | - | - |
| 1788284627 | 20° C | 48% | 1021 hPa | - | - | - | - |
| 1788283435 | 21.67° C | 47% | 1021.1 hPa | - | - | - | - |
| 1788282839 | 22.22° C | 46% | 1021.1 hPa | - | - | - | - |
| 1788282244 | 23.33° C | 44% | 1021.1 hPa | - | - | - | - |
| 1788281648 | 23.89° C | 44% | 1021.1 hPa | - | - | - | - |
| 1788281052 | 23.89° C | 44% | 1021.1 hPa | - | - | - | - |
| 1788279860 | 23.33° C | 43% | 1021.1 hPa | - | - | - | - |
| 1788279264 | 24.44° C | 42% | 1021.1 hPa | - | - | - | - |
| 1788278669 | 24.44° C | 41% | 1021 hPa | - | - | - | - |
* Rain since midnight (hover to see other rain measurements)
** Current wind speed in m/s (hover to see current wind gust speed)